When you browse on this site, cookies collect data to enhance your experience and personalize the content and advertising you see.
Visit our Privacy Policy to learn more. By continuing to use the site, you agree to this use of cookies and data.
  • In Sweden
  • List of Countries
  • For 7 days
  • Water Temperature
  • Weather Map
  • Weather Widgets
  • user-avatar
    Login

    Hourly Weather Darwin

    Today, 21 September, Saturday

    Time Temperature Precipitation Wind Pressure Humidity
    00:00 +23°C° 0 mm 2 mps 759 mmHg 89%
    01:00 +23°C° 0 mm 2 mps 759 mmHg 90%
    02:00 +21°C° 0 mm 2 mps 759 mmHg 92%
    03:00 +21°C° 0 mm 3 mps 759 mmHg 94%
    04:00 +21°C° 0 mm 3 mps 759 mmHg 94%
    05:00 +21°C° 0 mm 3 mps 760 mmHg 94%
    06:00 +21°C° 0 mm 3 mps 760 mmHg 95%
    07:00 +25°C° 0 mm 2 mps 761 mmHg 79%
    08:00 +29°C° 0 mm 2 mps 761 mmHg 64%
    09:00 +32°C° 0 mm 2 mps 761 mmHg 48%
    10:00 +35°C° 0 mm 2 mps 761 mmHg 43%
    11:00 +36°C° 0 mm 3 mps 760 mmHg 37%
    12:00 +38°C° 0 mm 3 mps 760 mmHg 32%
    13:00 +37°C° 0 mm 4 mps 759 mmHg 35%
    14:00 +36°C° 0 mm 4 mps 758 mmHg 38%
    15:00 +35°C° 0 mm 5 mps 758 mmHg 41%
    16:00 +34°C° 0 mm 5 mps 758 mmHg 46%
    17:00 +32°C° 0 mm 4 mps 758 mmHg 51%
    18:00 +29°C° 0 mm 3 mps 758 mmHg 57%
    19:00 +28°C° 0 mm 3 mps 758 mmHg 66%
    20:00 +26°C° 0 mm 3 mps 759 mmHg 76%
    21:00 +25°C° 0 mm 3 mps 760 mmHg 86%
    22:00 +25°C° 0 mm 3 mps 760 mmHg 87%
    23:00 +25°C° 0 mm 2 mps 760 mmHg 88%

    Tomorrow, 22 September, Sunday

    Time Temperature Precipitation Wind Pressure Humidity
    00:00 +24°C° 0 mm 2 mps 760 mmHg 89%
    01:00 +24°C° 0 mm 2 mps 760 mmHg 90%
    02:00 +24°C° 0 mm 2 mps 760 mmHg 91%
    03:00 +24°C° 0 mm 2 mps 760 mmHg 92%
    04:00 +23°C° 0 mm 2 mps 760 mmHg 93%
    05:00 +23°C° 0 mm 2 mps 760 mmHg 93%
    06:00 +23°C° 0 mm 2 mps 761 mmHg 93%
    07:00 +26°C° 0 mm 2 mps 761 mmHg 81%
    08:00 +28°C° 0 mm 2 mps 761 mmHg 69%
    09:00 +31°C° 0 mm 3 mps 761 mmHg 57%
    10:00 +34°C° 0 mm 3 mps 761 mmHg 49%
    11:00 +36°C° 0 mm 4 mps 761 mmHg 41%
    12:00 +39°C° 0 mm 5 mps 760 mmHg 33%
    13:00 +37°C° 0 mm 5 mps 760 mmHg 35%
    14:00 +36°C° 0 mm 5 mps 759 mmHg 38%
    15:00 +36°C° 0 mm 5 mps 758 mmHg 41%
    16:00 +35°C° 0 mm 5 mps 759 mmHg 44%
    17:00 +34°C° 0 mm 5 mps 759 mmHg 47%
    18:00 +33°C° 0 mm 4 mps 759 mmHg 50%
    19:00 +30°C° 0 mm 4 mps 760 mmHg 58%
    20:00 +29°C° 0 mm 4 mps 760 mmHg 65%
    21:00 +27°C° 0 mm 3 mps 760 mmHg 72%
    22:00 +27°C° 0.3 mm 3 mps 761 mmHg 77%
    23:00 +26°C° 0.3 mm 2 mps 761 mmHg 82%

    Day after tomorrow, 23 September, Monday

    Time Temperature Precipitation Wind Pressure Humidity
    00:00 +26°C° 0.3 mm 2 mps 761 mmHg 87%
    01:00 +25°C° 0.1 mm 2 mps 761 mmHg 88%
    02:00 +25°C° 0.1 mm 1 mps 760 mmHg 89%
    03:00 +25°C° 0.1 mm 1 mps 760 mmHg 91%
    04:00 +25°C° 0 mm 1 mps 760 mmHg 92%
    05:00 +24°C° 0 mm 1 mps 760 mmHg 92%
    06:00 +24°C° 0 mm 1 mps 761 mmHg 93%
    07:00 +27°C° 0 mm 2 mps 761 mmHg 78%
    08:00 +29°C° 0 mm 2 mps 761 mmHg 64%
    09:00 +32°C° 0 mm 2 mps 762 mmHg 49%
    10:00 +35°C° 0 mm 3 mps 761 mmHg 42%
    11:00 +37°C° 0 mm 3 mps 761 mmHg 35%
    12:00 +40°C° 0 mm 4 mps 760 mmHg 28%
    13:00 +38°C° 0 mm 4 mps 759 mmHg 31%
    14:00 +37°C° 0 mm 5 mps 759 mmHg 33%
    15:00 +37°C° 0 mm 5 mps 758 mmHg 36%
    16:00 +35°C° 0 mm 4 mps 758 mmHg 40%
    17:00 +34°C° 0 mm 4 mps 758 mmHg 43%
    18:00 +33°C° 0 mm 3 mps 759 mmHg 47%
    19:00 +30°C° 0 mm 3 mps 759 mmHg 55%
    20:00 +28°C° 0 mm 3 mps 760 mmHg 64%
    21:00 +27°C° 0 mm 3 mps 760 mmHg 72%
    22:00 +26°C° 0 mm 3 mps 761 mmHg 77%
    23:00 +26°C° 0 mm 2 mps 761 mmHg 82%

    24 September, Tuesday

    Time Temperature Precipitation Wind Pressure Humidity
    00:00 +25°C° 0 mm 2 mps 761 mmHg 87%
    01:00 +25°C° 0.1 mm 2 mps 760 mmHg 86%
    02:00 +25°C° 0.1 mm 1 mps 760 mmHg 86%
    03:00 +24°C° 0.1 mm 1 mps 760 mmHg 85%
    04:00 +24°C° 0 mm 1 mps 760 mmHg 85%
    05:00 +24°C° 0 mm 1 mps 760 mmHg 85%
    06:00 +24°C° 0 mm 1 mps 760 mmHg 84%
    07:00 +27°C° 0 mm 1 mps 761 mmHg 73%
    08:00 +30°C° 0 mm 1 mps 761 mmHg 62%
    09:00 +34°C° 0 mm 2 mps 761 mmHg 51%
    10:00 +35°C° 0.1 mm 2 mps 761 mmHg 47%
    11:00 +36°C° 0.1 mm 3 mps 760 mmHg 44%
    12:00 +37°C° 0.1 mm 4 mps 760 mmHg 40%
    13:00 +36°C° 0 mm 4 mps 759 mmHg 42%
    14:00 +36°C° 0 mm 4 mps 758 mmHg 44%
    15:00 +35°C° 0 mm 5 mps 758 mmHg 46%
    16:00 +34°C° 0 mm 4 mps 758 mmHg 47%
    17:00 +33°C° 0 mm 3 mps 758 mmHg 48%
    18:00 +31°C° 0 mm 3 mps 758 mmHg 49%
    19:00 +30°C° 0 mm 3 mps 759 mmHg 58%
    20:00 +28°C° 0 mm 3 mps 759 mmHg 67%
    21:00 +26°C° 0 mm 3 mps 760 mmHg 76%
    22:00 +26°C° 0 mm 2 mps 760 mmHg 79%
    23:00 +26°C° 0 mm 2 mps 760 mmHg 82%

    25 September, Wednesday

    Time Temperature Precipitation Wind Pressure Humidity
    00:00 +25°C° 0 mm 1 mps 760 mmHg 86%
    01:00 +25°C° 0 mm 1 mps 760 mmHg 88%
    02:00 +25°C° 0 mm 1 mps 760 mmHg 90%
    03:00 +22°C° 0 mm 0 mps 760 mmHg 92%
    04:00 +24°C° 0 mm 1 mps 760 mmHg 92%
    05:00 +24°C° 0 mm 2 mps 760 mmHg 92%
    06:00 +24°C° 0 mm 2 mps 760 mmHg 93%
    07:00 +27°C° 0 mm 2 mps 761 mmHg 79%
    08:00 +30°C° 0 mm 2 mps 761 mmHg 65%
    09:00 +32°C° 0 mm 2 mps 761 mmHg 52%
    10:00 +35°C° 0 mm 2 mps 761 mmHg 44%
    11:00 +37°C° 0 mm 3 mps 760 mmHg 37%
    12:00 +39°C° 0 mm 3 mps 759 mmHg 29%
    13:00 +40°C° 0 mm 4 mps 759 mmHg 32%
    14:00 +38°C° 0 mm 4 mps 758 mmHg 35%
    15:00 +37°C° 0 mm 5 mps 757 mmHg 38%
    16:00 +35°C° 0 mm 4 mps 757 mmHg 41%
    17:00 +34°C° 0 mm 4 mps 757 mmHg 44%
    18:00 +31°C° 0 mm 3 mps 757 mmHg 48%
    19:00 +30°C° 0 mm 3 mps 758 mmHg 58%
    20:00 +28°C° 0 mm 3 mps 759 mmHg 69%
    21:00 +26°C° 0 mm 3 mps 760 mmHg 79%
    22:00 +26°C° 0 mm 2 mps 760 mmHg 81%
    23:00 +26°C° 0 mm 2 mps 761 mmHg 82%

    26 September, Thursday

    Time Temperature Precipitation Wind Pressure Humidity
    00:00 +26°C° 0 mm 2 mps 761 mmHg 84%
    01:00 +26°C° 0 mm 2 mps 760 mmHg 85%
    02:00 +25°C° 0 mm 2 mps 760 mmHg 86%
    03:00 +25°C° 0 mm 3 mps 760 mmHg 88%
    04:00 +25°C° 0 mm 3 mps 760 mmHg 90%
    05:00 +24°C° 0 mm 3 mps 760 mmHg 91%
    06:00 +24°C° 0 mm 3 mps 761 mmHg 93%
    07:00 +26°C° 0 mm 3 mps 761 mmHg 79%
    08:00 +29°C° 0 mm 3 mps 761 mmHg 65%
    09:00 +33°C° 0 mm 4 mps 762 mmHg 51%
    10:00 +35°C° 0 mm 4 mps 761 mmHg 43%
    11:00 +37°C° 0 mm 5 mps 760 mmHg 36%
    12:00 +40°C° 0 mm 5 mps 759 mmHg 28%
    13:00 +40°C° 0 mm 5 mps 758 mmHg 29%
    14:00 +40°C° 0 mm 5 mps 758 mmHg 29%
    15:00 +40°C° 0 mm 5 mps 757 mmHg 29%
    16:00 +38°C° 0 mm 6 mps 757 mmHg 36%
    17:00 +35°C° 0 mm 6 mps 757 mmHg 43%
    18:00 +33°C° 0 mm 6 mps 757 mmHg 50%
    19:00 +32°C° 0 mm 5 mps 758 mmHg 59%
    20:00 +29°C° 0 mm 4 mps 759 mmHg 68%
    21:00 +28°C° 0 mm 3 mps 760 mmHg 76%
    22:00 +27°C° 0.1 mm 2 mps 760 mmHg 79%
    23:00 +27°C° 0.1 mm 2 mps 760 mmHg 83%
    Show more